|
NORAD ID: 38261 Int'l Code: 2012-021E
Perigee: 336.0 km
Apogee: 394.6 km
Inclination: 97.4 °
Period: 91.7 minutes
Semi major axis: 6736 km
Launch date: May 10, 2012
Source: People's Republic of China (PRC)
Note: This is SATELLITE DEBRIS
Two Line Element Set (TLE):
1 38261U 12021E 13145.81048194 .00529373 00000-0 39130-2 0 2816
2 38261 097.3931 279.3007 0043463 229.6723 130.0739 15.70248072 58083
Source:
NASA's NSSDC Master Catalog entry for CZ-4B DEB
|